owner,sensor,date,latitude,longitude,vertical_datum,mass_concentration_of_oxygen_in_sea_water,qcFlag 
DISL,ioos:station:DISL:CATA:1,2011-11-01T00:00:00Z,30.3085,-88.1395,1.927,9.49,1111122 
DISL,ioos:station:DISL:CATA:1,2011-11-01T00:30:00Z,30.3085,-88.1395,1.955,9.4,1111122 
DISL,ioos:station:DISL:CATA:1,2011-11-01T01:00:00Z,30.3085,-88.1395,1.984,9.33,1111122 
DISL,ioos:station:DISL:CATA:1,2011-11-01T01:30:00Z,30.3085,-88.1395,2.008,9.3,1111122 
DISL,ioos:station:DISL:CATA:1,2011-11-01T02:00:00Z,30.3085,-88.1395,2.032,9.38,1111122 
DISL,ioos:station:DISL:CATA:1,2011-11-01T02:30:00Z,30.3085,-88.1395,2.059,9.34,1111122 
DISL,ioos:station:DISL:CATA:1,2011-11-01T03:00:00Z,30.3085,-88.1395,2.086,9.27,1111122 
DISL,ioos:station:DISL:CATA:1,2011-11-01T03:30:00Z,30.3085,-88.1395,2.121,9.31,1111122 
DISL,ioos:station:DISL:CATA:1,2011-11-01T04:00:00Z,30.3085,-88.1395,2.142,9.39,1111122 
DISL,ioos:station:DISL:CATA:1,2011-11-01T04:30:00Z,30.3085,-88.1395,2.171,9.42,1111122 
DISL,ioos:station:DISL:CATA:1,2011-11-01T05:00:00Z,30.3085,-88.1395,2.188,9.46,1111122 
DISL,ioos:station:DISL:CATA:1,2011-11-01T05:30:00Z,30.3085,-88.1395,2.213,9.53,1111122 
DISL,ioos:station:DISL:CATA:1,2011-11-01T06:00:00Z,30.3085,-88.1395,2.234,9.61,1111122 
DISL,ioos:station:DISL:CATA:1,2011-11-01T06:30:00Z,30.3085,-88.1395,2.252,9.59,1111122 
DISL,ioos:station:DISL:CATA:1,2011-11-01T07:00:00Z,30.3085,-88.1395,2.27,9.53,1111122 
DISL,ioos:station:DISL:CATA:1,2011-11-01T07:30:00Z,30.3085,-88.1395,2.267,9.45,1111122 
DISL,ioos:station:DISL:CATA:1,2011-11-01T08:00:00Z,30.3085,-88.1395,2.262,9.44,1111122 
DISL,ioos:station:DISL:CATA:1,2011-11-01T08:30:00Z,30.3085,-88.1395,2.247,9.29,1111122 
DISL,ioos:station:DISL:CATA:1,2011-11-01T09:00:00Z,30.3085,-88.1395,2.229,9.04,1111122 
DISL,ioos:station:DISL:CATA:1,2011-11-01T09:30:00Z,30.3085,-88.1395,2.218,8.85,1111122 
DISL,ioos:station:DISL:CATA:1,2011-11-01T10:00:00Z,30.3085,-88.1395,2.19,8.94,1111122 
DISL,ioos:station:DISL:CATA:1,2011-11-01T10:30:00Z,30.3085,-88.1395,2.18,9.02,1111122 
DISL,ioos:station:DISL:CATA:1,2011-11-01T11:00:00Z,30.3085,-88.1395,2.146,8.7,1111122 
DISL,ioos:station:DISL:CATA:1,2011-11-01T11:30:00Z,30.3085,-88.1395,2.113,8.89,1111122 
DISL,ioos:station:DISL:CATA:1,2011-11-01T12:00:00Z,30.3085,-88.1395,2.084,8.87,1111122 
DISL,ioos:station:DISL:CATA:1,2011-11-01T12:30:00Z,30.3085,-88.1395,2.052,8.88,1111122 
DISL,ioos:station:DISL:CATA:1,2011-11-01T13:00:00Z,30.3085,-88.1395,2.016,9.09,1111122 
DISL,ioos:station:DISL:CATA:1,2011-11-01T13:30:00Z,30.3085,-88.1395,1.973,9.05,1111122 
DISL,ioos:station:DISL:CATA:1,2011-11-01T14:00:00Z,30.3085,-88.1395,1.945,8.83,1111122 
DISL,ioos:station:DISL:CATA:1,2011-11-01T14:30:00Z,30.3085,-88.1395,1.912,8.58,1111122 
DISL,ioos:station:DISL:CATA:1,2011-11-01T15:00:00Z,30.3085,-88.1395,1.882,8.58,1111122 
DISL,ioos:station:DISL:CATA:1,2011-11-01T15:30:00Z,30.3085,-88.1395,1.864,8.61,1111122 
DISL,ioos:station:DISL:CATA:1,2011-11-01T16:00:00Z,30.3085,-88.1395,1.836,8.63,1111122 
DISL,ioos:station:DISL:CATA:1,2011-11-01T16:30:00Z,30.3085,-88.1395,1.819,8.64,1111122 
DISL,ioos:station:DISL:CATA:1,2011-11-01T17:00:00Z,30.3085,-88.1395,1.812,8.69,1111122 
DISL,ioos:station:DISL:CATA:1,2011-11-01T17:30:00Z,30.3085,-88.1395,1.812,8.71,1111122 
DISL,ioos:station:DISL:CATA:1,2011-11-01T18:00:00Z,30.3085,-88.1395,1.808,8.72,1111122 
DISL,ioos:station:DISL:CATA:1,2011-11-01T18:30:00Z,30.3085,-88.1395,1.812,8.71,1111122 
DISL,ioos:station:DISL:CATA:1,2011-11-01T19:00:00Z,30.3085,-88.1395,1.811,8.73,1111122 
DISL,ioos:station:DISL:CATA:1,2011-11-01T19:30:00Z,30.3085,-88.1395,1.829,8.73,1111122 
DISL,ioos:station:DISL:CATA:1,2011-11-01T20:00:00Z,30.3085,-88.1395,1.844,8.72,1111122 
DISL,ioos:station:DISL:CATA:1,2011-11-01T20:30:00Z,30.3085,-88.1395,1.857,8.7,1111122 
DISL,ioos:station:DISL:CATA:1,2011-11-01T21:00:00Z,30.3085,-88.1395,1.865,8.69,1111122 
DISL,ioos:station:DISL:CATA:1,2011-11-01T21:30:00Z,30.3085,-88.1395,1.883,8.7,1111122 
DISL,ioos:station:DISL:CATA:1,2011-11-01T22:00:00Z,30.3085,-88.1395,1.904,8.64,1111122 
DISL,ioos:station:DISL:CATA:1,2011-11-01T22:30:00Z,30.3085,-88.1395,1.926,8.39,1111122 
DISL,ioos:station:DISL:CATA:1,2011-11-01T23:00:00Z,30.3085,-88.1395,1.949,8.6,1111122 
DISL,ioos:station:DISL:CATA:1,2011-11-01T23:30:00Z,30.3085,-88.1395,1.966,8.61,1111122 
DISL,ioos:station:DISL:CATA:1,2011-11-02T00:00:00Z,30.3085,-88.1395,1.992,8.7,1111122 
DISL,ioos:station:DISL:CATA:1,2011-11-02T00:30:00Z,30.3085,-88.1395,2.017,8.67,1111122 
DISL,ioos:station:DISL:CATA:1,2011-11-02T01:00:00Z,30.3085,-88.1395,2.043,8.69,1111122 
DISL,ioos:station:DISL:CATA:1,2011-11-02T01:30:00Z,30.3085,-88.1395,2.071,8.63,1111122 
DISL,ioos:station:DISL:CATA:1,2011-11-02T02:00:00Z,30.3085,-88.1395,2.101,8.62,1111122 
DISL,ioos:station:DISL:CATA:1,2011-11-02T02:30:00Z,30.3085,-88.1395,2.13,8.61,1111122 
DISL,ioos:station:DISL:CATA:1,2011-11-02T03:00:00Z,30.3085,-88.1395,2.157,8.63,1111122 
DISL,ioos:station:DISL:CATA:1,2011-11-02T03:30:00Z,30.3085,-88.1395,2.179,8.68,1111122 
DISL,ioos:station:DISL:CATA:1,2011-11-02T04:00:00Z,30.3085,-88.1395,2.201,8.76,1111122 
DISL,ioos:station:DISL:CATA:1,2011-11-02T04:30:00Z,30.3085,-88.1395,2.222,8.76,1111122 
DISL,ioos:station:DISL:CATA:1,2011-11-02T05:00:00Z,30.3085,-88.1395,2.238,8.76,1111122 
DISL,ioos:station:DISL:CATA:1,2011-11-02T05:30:00Z,30.3085,-88.1395,2.259,8.74,1111122 
DISL,ioos:station:DISL:CATA:1,2011-11-02T06:00:00Z,30.3085,-88.1395,2.277,8.69,1111122 
DISL,ioos:station:DISL:CATA:1,2011-11-02T06:30:00Z,30.3085,-88.1395,2.291,8.66,1111122 
DISL,ioos:station:DISL:CATA:1,2011-11-02T07:00:00Z,30.3085,-88.1395,2.304,8.65,1111122 
DISL,ioos:station:DISL:CATA:1,2011-11-02T07:30:00Z,30.3085,-88.1395,2.305,8.62,1111122 
DISL,ioos:station:DISL:CATA:1,2011-11-02T08:00:00Z,30.3085,-88.1395,2.294,8.59,1111122 
DISL,ioos:station:DISL:CATA:1,2011-11-02T08:30:00Z,30.3085,-88.1395,2.287,8.53,1111122 
DISL,ioos:station:DISL:CATA:1,2011-11-02T09:00:00Z,30.3085,-88.1395,2.277,8.28,1111122 
DISL,ioos:station:DISL:CATA:1,2011-11-02T09:30:00Z,30.3085,-88.1395,2.26,8.27,1111122 
DISL,ioos:station:DISL:CATA:1,2011-11-02T10:00:00Z,30.3085,-88.1395,2.242,8.35,1111122 
DISL,ioos:station:DISL:CATA:1,2011-11-02T10:30:00Z,30.3085,-88.1395,2.223,8.31,1111122 
DISL,ioos:station:DISL:CATA:1,2011-11-02T11:00:00Z,30.3085,-88.1395,2.199,8.31,1111122 
DISL,ioos:station:DISL:CATA:1,2011-11-02T11:30:00Z,30.3085,-88.1395,2.161,8.35,1111122 
DISL,ioos:station:DISL:CATA:1,2011-11-02T12:00:00Z,30.3085,-88.1395,2.145,8.34,1111122 
DISL,ioos:station:DISL:CATA:1,2011-11-02T12:30:00Z,30.3085,-88.1395,2.107,8.29,1111122 
DISL,ioos:station:DISL:CATA:1,2011-11-02T13:00:00Z,30.3085,-88.1395,2.063,8.27,1111122 
DISL,ioos:station:DISL:CATA:1,2011-11-02T13:30:00Z,30.3085,-88.1395,2.044,8.22,1111122 
DISL,ioos:station:DISL:CATA:1,2011-11-02T14:00:00Z,30.3085,-88.1395,2.023,8.26,1111122 
DISL,ioos:station:DISL:CATA:1,2011-11-02T14:30:00Z,30.3085,-88.1395,1.986,8.27,1111122 
DISL,ioos:station:DISL:CATA:1,2011-11-02T15:00:00Z,30.3085,-88.1395,1.953,8.3,1111122 
DISL,ioos:station:DISL:CATA:1,2011-11-02T15:30:00Z,30.3085,-88.1395,1.921,8.32,1111122 
DISL,ioos:station:DISL:CATA:1,2011-11-02T16:00:00Z,30.3085,-88.1395,1.895,8.36,1111122 
DISL,ioos:station:DISL:CATA:1,2011-11-02T16:30:00Z,30.3085,-88.1395,1.884,8.39,1111122 
DISL,ioos:station:DISL:CATA:1,2011-11-02T17:00:00Z,30.3085,-88.1395,1.878,8.38,1111122 
DISL,ioos:station:DISL:CATA:1,2011-11-02T17:30:00Z,30.3085,-88.1395,1.864,8.38,1111122 
DISL,ioos:station:DISL:CATA:1,2011-11-02T18:00:00Z,30.3085,-88.1395,1.856,8.37,1111122 
DISL,ioos:station:DISL:CATA:1,2011-11-02T18:30:00Z,30.3085,-88.1395,1.861,8.39,1111122 
DISL,ioos:station:DISL:CATA:1,2011-11-02T19:00:00Z,30.3085,-88.1395,1.866,8.41,1111122 
DISL,ioos:station:DISL:CATA:1,2011-11-02T19:30:00Z,30.3085,-88.1395,1.871,8.44,1111122 
DISL,ioos:station:DISL:CATA:1,2011-11-02T20:00:00Z,30.3085,-88.1395,1.877,8.44,1111122 
DISL,ioos:station:DISL:CATA:1,2011-11-02T20:30:00Z,30.3085,-88.1395,1.886,8.46,1111122 
DISL,ioos:station:DISL:CATA:1,2011-11-02T21:00:00Z,30.3085,-88.1395,1.898,8.46,1111122 
DISL,ioos:station:DISL:CATA:1,2011-11-02T21:30:00Z,30.3085,-88.1395,1.909,8.46,1111122 
DISL,ioos:station:DISL:CATA:1,2011-11-02T22:00:00Z,30.3085,-88.1395,1.923,8.45,1111122 
DISL,ioos:station:DISL:CATA:1,2011-11-02T22:30:00Z,30.3085,-88.1395,1.948,8.41,1111122 
DISL,ioos:station:DISL:CATA:1,2011-11-02T23:00:00Z,30.3085,-88.1395,1.965,8.39,1111122 
DISL,ioos:station:DISL:CATA:1,2011-11-02T23:30:00Z,30.3085,-88.1395,1.988,8.37,1111122 
DISL,ioos:station:DISL:CATA:1,2011-11-03T00:00:00Z,30.3085,-88.1395,1.994,8.24,1111122 
DISL,ioos:station:DISL:CATA:1,2011-11-03T00:30:00Z,30.3085,-88.1395,2.025,8.1,1111122 
DISL,ioos:station:DISL:CATA:1,2011-11-03T01:00:00Z,30.3085,-88.1395,2.048,8.13,1111122 
DISL,ioos:station:DISL:CATA:1,2011-11-03T01:30:00Z,30.3085,-88.1395,2.082,8.02,1111122 
DISL,ioos:station:DISL:CATA:1,2011-11-03T02:00:00Z,30.3085,-88.1395,2.099,8.2,1111122 
DISL,ioos:station:DISL:CATA:1,2011-11-03T02:30:00Z,30.3085,-88.1395,2.126,8.15,1111122 
DISL,ioos:station:DISL:CATA:1,2011-11-03T03:00:00Z,30.3085,-88.1395,2.13,8.16,1111122 
DISL,ioos:station:DISL:CATA:1,2011-11-03T03:30:00Z,30.3085,-88.1395,2.162,8.16,1111122 
DISL,ioos:station:DISL:CATA:1,2011-11-03T04:00:00Z,30.3085,-88.1395,2.172,8.19,1111122 
DISL,ioos:station:DISL:CATA:1,2011-11-03T04:30:00Z,30.3085,-88.1395,2.195,8.18,1111122 
DISL,ioos:station:DISL:CATA:1,2011-11-03T05:00:00Z,30.3085,-88.1395,2.219,8.17,1111122 
DISL,ioos:station:DISL:CATA:1,2011-11-03T05:30:00Z,30.3085,-88.1395,2.241,8.12,1111122 
DISL,ioos:station:DISL:CATA:1,2011-11-03T06:00:00Z,30.3085,-88.1395,2.261,8.08,1111122 
DISL,ioos:station:DISL:CATA:1,2011-11-03T06:30:00Z,30.3085,-88.1395,2.289,8.08,1111122 
DISL,ioos:station:DISL:CATA:1,2011-11-03T07:00:00Z,30.3085,-88.1395,2.305,8.11,1111122 
DISL,ioos:station:DISL:CATA:1,2011-11-03T07:30:00Z,30.3085,-88.1395,2.33,8.08,1111122 
DISL,ioos:station:DISL:CATA:1,2011-11-03T08:00:00Z,30.3085,-88.1395,2.334,8.05,1111122 
DISL,ioos:station:DISL:CATA:1,2011-11-03T08:30:00Z,30.3085,-88.1395,2.346,8.03,1111122 
DISL,ioos:station:DISL:CATA:1,2011-11-03T09:00:00Z,30.3085,-88.1395,2.357,8.07,1111122 
DISL,ioos:station:DISL:CATA:1,2011-11-03T09:30:00Z,30.3085,-88.1395,2.345,8.07,1111122 
DISL,ioos:station:DISL:CATA:1,2011-11-03T10:00:00Z,30.3085,-88.1395,2.325,8.05,1111122 
DISL,ioos:station:DISL:CATA:1,2011-11-03T10:30:00Z,30.3085,-88.1395,2.31,8.02,1111122 
DISL,ioos:station:DISL:CATA:1,2011-11-03T11:00:00Z,30.3085,-88.1395,2.291,7.89,1111122 
DISL,ioos:station:DISL:CATA:1,2011-11-03T11:30:00Z,30.3085,-88.1395,2.281,7.97,1111122 
DISL,ioos:station:DISL:CATA:1,2011-11-03T12:00:00Z,30.3085,-88.1395,2.284,7.84,1111122 
DISL,ioos:station:DISL:CATA:1,2011-11-03T12:30:00Z,30.3085,-88.1395,2.261,7.7,1111122 
DISL,ioos:station:DISL:CATA:1,2011-11-03T13:00:00Z,30.3085,-88.1395,2.238,7.49,1111122 
DISL,ioos:station:DISL:CATA:1,2011-11-03T13:30:00Z,30.3085,-88.1395,2.217,7.78,1111122 
DISL,ioos:station:DISL:CATA:1,2011-11-03T14:00:00Z,30.3085,-88.1395,2.213,7.95,1111122 
DISL,ioos:station:DISL:CATA:1,2011-11-03T14:30:00Z,30.3085,-88.1395,2.201,8.04,1111122 
DISL,ioos:station:DISL:CATA:1,2011-11-03T15:00:00Z,30.3085,-88.1395,2.184,8.08,1111122 
DISL,ioos:station:DISL:CATA:1,2011-11-03T15:30:00Z,30.3085,-88.1395,2.168,8.16,1111122 
DISL,ioos:station:DISL:CATA:1,2011-11-03T16:00:00Z,30.3085,-88.1395,2.154,8.1,1111122 
DISL,ioos:station:DISL:CATA:1,2011-11-03T16:30:00Z,30.3085,-88.1395,2.142,8.04,1111122 
DISL,ioos:station:DISL:CATA:1,2011-11-03T17:00:00Z,30.3085,-88.1395,2.143,8.1,1111122 
DISL,ioos:station:DISL:CATA:1,2011-11-03T17:30:00Z,30.3085,-88.1395,2.123,8.18,1111122 
DISL,ioos:station:DISL:CATA:1,2011-11-03T18:00:00Z,30.3085,-88.1395,2.113,8.25,1111122 
DISL,ioos:station:DISL:CATA:1,2011-11-03T18:30:00Z,30.3085,-88.1395,2.092,8.34,1111122 
DISL,ioos:station:DISL:CATA:1,2011-11-03T19:00:00Z,30.3085,-88.1395,2.086,8.17,1111122 
DISL,ioos:station:DISL:CATA:1,2011-11-03T19:30:00Z,30.3085,-88.1395,2.09,8.48,1111122 
DISL,ioos:station:DISL:CATA:1,2011-11-03T20:00:00Z,30.3085,-88.1395,2.105,8.41,1111122 
DISL,ioos:station:DISL:CATA:1,2011-11-03T20:30:00Z,30.3085,-88.1395,2.09,8.38,1111122 
DISL,ioos:station:DISL:CATA:1,2011-11-03T21:00:00Z,30.3085,-88.1395,2.073,8.37,1111122 
DISL,ioos:station:DISL:CATA:1,2011-11-03T21:30:00Z,30.3085,-88.1395,2.14,8.33,1111122 
DISL,ioos:station:DISL:CATA:1,2011-11-03T22:00:00Z,30.3085,-88.1395,2.107,8.24,1111122 
DISL,ioos:station:DISL:CATA:1,2011-11-03T22:30:00Z,30.3085,-88.1395,2.032,8.18,1111122 
DISL,ioos:station:DISL:CATA:1,2011-11-03T23:00:00Z,30.3085,-88.1395,2.003,8.22,1111122 
DISL,ioos:station:DISL:CATA:1,2011-11-03T23:30:00Z,30.3085,-88.1395,2.005,8.42,1111122 
DISL,ioos:station:DISL:CATA:1,2011-11-04T00:00:00Z,30.3085,-88.1395,1.991,7.82,1111122 
DISL,ioos:station:DISL:CATA:1,2011-11-04T00:30:00Z,30.3085,-88.1395,1.962,7.8,1111122 
DISL,ioos:station:DISL:CATA:1,2011-11-04T01:00:00Z,30.3085,-88.1395,1.979,7.94,1111122 
DISL,ioos:station:DISL:CATA:1,2011-11-04T01:30:00Z,30.3085,-88.1395,2.011,8.0,1111122 
DISL,ioos:station:DISL:CATA:1,2011-11-04T02:00:00Z,30.3085,-88.1395,2.021,7.95,1111122 
DISL,ioos:station:DISL:CATA:1,2011-11-04T02:30:00Z,30.3085,-88.1395,2.023,7.83,1111122 
DISL,ioos:station:DISL:CATA:1,2011-11-04T03:00:00Z,30.3085,-88.1395,2.019,7.91,1111122 
DISL,ioos:station:DISL:CATA:1,2011-11-04T03:30:00Z,30.3085,-88.1395,1.985,7.84,1111122 
DISL,ioos:station:DISL:CATA:1,2011-11-04T04:00:00Z,30.3085,-88.1395,1.957,7.78,1111122 
DISL,ioos:station:DISL:CATA:1,2011-11-04T04:30:00Z,30.3085,-88.1395,1.931,7.89,1111122 
DISL,ioos:station:DISL:CATA:1,2011-11-04T05:00:00Z,30.3085,-88.1395,1.937,7.89,1111122 
DISL,ioos:station:DISL:CATA:1,2011-11-04T05:30:00Z,30.3085,-88.1395,1.896,7.95,1111122 
DISL,ioos:station:DISL:CATA:1,2011-11-04T06:00:00Z,30.3085,-88.1395,1.886,7.99,1111122 
DISL,ioos:station:DISL:CATA:1,2011-11-04T06:30:00Z,30.3085,-88.1395,1.926,8.04,1111122 
DISL,ioos:station:DISL:CATA:1,2011-11-04T07:00:00Z,30.3085,-88.1395,1.959,8.04,1111122 
DISL,ioos:station:DISL:CATA:1,2011-11-04T07:30:00Z,30.3085,-88.1395,1.948,7.97,1111122 
DISL,ioos:station:DISL:CATA:1,2011-11-04T08:00:00Z,30.3085,-88.1395,1.948,8.0,1111122 
DISL,ioos:station:DISL:CATA:1,2011-11-04T08:30:00Z,30.3085,-88.1395,1.98,7.98,1111122 
DISL,ioos:station:DISL:CATA:1,2011-11-04T09:00:00Z,30.3085,-88.1395,1.998,8.04,1111122 
DISL,ioos:station:DISL:CATA:1,2011-11-04T09:30:00Z,30.3085,-88.1395,2.004,8.05,1111122 
DISL,ioos:station:DISL:CATA:1,2011-11-04T10:00:00Z,30.3085,-88.1395,2.032,8.06,1111122 
DISL,ioos:station:DISL:CATA:1,2011-11-04T10:30:00Z,30.3085,-88.1395,2.037,8.05,1111122 
DISL,ioos:station:DISL:CATA:1,2011-11-04T11:00:00Z,30.3085,-88.1395,2.042,8.05,1111122 
DISL,ioos:station:DISL:CATA:1,2011-11-04T11:30:00Z,30.3085,-88.1395,2.045,8.08,1111122 
DISL,ioos:station:DISL:CATA:1,2011-11-04T12:00:00Z,30.3085,-88.1395,2.045,8.07,1111122 
DISL,ioos:station:DISL:CATA:1,2011-11-04T12:30:00Z,30.3085,-88.1395,2.022,8.08,1111122 
DISL,ioos:station:DISL:CATA:1,2011-11-04T13:00:00Z,30.3085,-88.1395,2.006,8.05,1111122 
DISL,ioos:station:DISL:CATA:1,2011-11-04T13:30:00Z,30.3085,-88.1395,1.999,8.02,1111122 
DISL,ioos:station:DISL:CATA:1,2011-11-04T14:00:00Z,30.3085,-88.1395,2.013,7.95,1111122 
DISL,ioos:station:DISL:CATA:1,2011-11-04T14:30:00Z,30.3085,-88.1395,2.289,7.77,1111122 
DISL,ioos:station:DISL:CATA:1,2011-11-04T15:00:00Z,30.3085,-88.1395,2.328,7.65,1111122 
DISL,ioos:station:DISL:CATA:1,2011-11-04T15:30:00Z,30.3085,-88.1395,2.346,8.12,1111122 
DISL,ioos:station:DISL:CATA:1,2011-11-04T16:00:00Z,30.3085,-88.1395,2.375,7.74,1111122 
DISL,ioos:station:DISL:CATA:1,2011-11-04T16:30:00Z,30.3085,-88.1395,2.356,8.33,1111122 
DISL,ioos:station:DISL:CATA:1,2011-11-04T17:00:00Z,30.3085,-88.1395,2.33,8.15,1111122 
DISL,ioos:station:DISL:CATA:1,2011-11-04T17:30:00Z,30.3085,-88.1395,2.307,8.11,1111122 
DISL,ioos:station:DISL:CATA:1,2011-11-04T18:00:00Z,30.3085,-88.1395,2.283,8.15,1111122 
DISL,ioos:station:DISL:CATA:1,2011-11-04T18:30:00Z,30.3085,-88.1395,2.25,8.22,1111122 
DISL,ioos:station:DISL:CATA:1,2011-11-04T19:00:00Z,30.3085,-88.1395,2.246,8.21,1111122 
DISL,ioos:station:DISL:CATA:1,2011-11-04T19:30:00Z,30.3085,-88.1395,2.234,8.2,1111122 
DISL,ioos:station:DISL:CATA:1,2011-11-04T20:00:00Z,30.3085,-88.1395,2.227,8.1,1111122 
DISL,ioos:station:DISL:CATA:1,2011-11-04T20:30:00Z,30.3085,-88.1395,2.216,8.13,1111122 
DISL,ioos:station:DISL:CATA:1,2011-11-04T21:00:00Z,30.3085,-88.1395,2.202,8.18,1111122 
DISL,ioos:station:DISL:CATA:1,2011-11-04T21:30:00Z,30.3085,-88.1395,2.206,8.54,1111122 
DISL,ioos:station:DISL:CATA:1,2011-11-04T22:00:00Z,30.3085,-88.1395,2.239,8.51,1111122 
DISL,ioos:station:DISL:CATA:1,2011-11-04T22:30:00Z,30.3085,-88.1395,2.254,8.64,1111122 
DISL,ioos:station:DISL:CATA:1,2011-11-04T23:00:00Z,30.3085,-88.1395,2.273,8.61,1111122 
DISL,ioos:station:DISL:CATA:1,2011-11-04T23:30:00Z,30.3085,-88.1395,2.245,8.72,1111122 
DISL,ioos:station:DISL:CATA:1,2011-11-05T00:00:00Z,30.3085,-88.1395,2.239,8.6,1111122 
DISL,ioos:station:DISL:CATA:1,2011-11-05T00:30:00Z,30.3085,-88.1395,2.253,8.45,1111122 
DISL,ioos:station:DISL:CATA:1,2011-11-05T01:00:00Z,30.3085,-88.1395,2.247,8.42,1111122 
DISL,ioos:station:DISL:CATA:1,2011-11-05T01:30:00Z,30.3085,-88.1395,2.245,8.36,1111122 
DISL,ioos:station:DISL:CATA:1,2011-11-05T02:00:00Z,30.3085,-88.1395,2.258,8.3,1111122 
DISL,ioos:station:DISL:CATA:1,2011-11-05T02:30:00Z,30.3085,-88.1395,2.275,8.27,1111122 
DISL,ioos:station:DISL:CATA:1,2011-11-05T03:00:00Z,30.3085,-88.1395,2.304,8.25,1111122 
DISL,ioos:station:DISL:CATA:1,2011-11-05T03:30:00Z,30.3085,-88.1395,2.313,8.19,1111122 
DISL,ioos:station:DISL:CATA:1,2011-11-05T04:00:00Z,30.3085,-88.1395,2.319,8.2,1111122 
DISL,ioos:station:DISL:CATA:1,2011-11-05T04:30:00Z,30.3085,-88.1395,2.324,8.2,1111122 
DISL,ioos:station:DISL:CATA:1,2011-11-05T05:00:00Z,30.3085,-88.1395,2.316,8.18,1111122 
DISL,ioos:station:DISL:CATA:1,2011-11-05T05:30:00Z,30.3085,-88.1395,2.308,8.09,1111122 
DISL,ioos:station:DISL:CATA:1,2011-11-05T06:00:00Z,30.3085,-88.1395,2.298,8.11,1111122 
DISL,ioos:station:DISL:CATA:1,2011-11-05T06:30:00Z,30.3085,-88.1395,2.289,8.08,1111122 
DISL,ioos:station:DISL:CATA:1,2011-11-05T07:00:00Z,30.3085,-88.1395,2.288,8.02,1111122 
DISL,ioos:station:DISL:CATA:1,2011-11-05T07:30:00Z,30.3085,-88.1395,2.284,8.12,1111122 
DISL,ioos:station:DISL:CATA:1,2011-11-05T08:00:00Z,30.3085,-88.1395,2.276,8.14,1111122 
DISL,ioos:station:DISL:CATA:1,2011-11-05T08:30:00Z,30.3085,-88.1395,2.254,8.26,1111122 
DISL,ioos:station:DISL:CATA:1,2011-11-05T09:00:00Z,30.3085,-88.1395,2.25,8.11,1111122 
DISL,ioos:station:DISL:CATA:1,2011-11-05T09:30:00Z,30.3085,-88.1395,2.241,8.15,1111122 
DISL,ioos:station:DISL:CATA:1,2011-11-05T10:00:00Z,30.3085,-88.1395,2.264,8.13,1111122 
DISL,ioos:station:DISL:CATA:1,2011-11-05T10:30:00Z,30.3085,-88.1395,2.287,8.13,1111122 
DISL,ioos:station:DISL:CATA:1,2011-11-05T11:00:00Z,30.3085,-88.1395,2.294,8.1,1111122 
DISL,ioos:station:DISL:CATA:1,2011-11-05T11:30:00Z,30.3085,-88.1395,2.3,8.09,1111122 
DISL,ioos:station:DISL:CATA:1,2011-11-05T12:00:00Z,30.3085,-88.1395,2.315,8.05,1111122 
DISL,ioos:station:DISL:CATA:1,2011-11-05T12:30:00Z,30.3085,-88.1395,2.32,7.99,1111122 
DISL,ioos:station:DISL:CATA:1,2011-11-05T13:00:00Z,30.3085,-88.1395,2.319,8.09,1111122 
DISL,ioos:station:DISL:CATA:1,2011-11-05T13:30:00Z,30.3085,-88.1395,2.324,8.08,1111122 
DISL,ioos:station:DISL:CATA:1,2011-11-05T14:00:00Z,30.3085,-88.1395,2.328,8.16,1111122 
DISL,ioos:station:DISL:CATA:1,2011-11-05T14:30:00Z,30.3085,-88.1395,2.33,8.15,1111122 
DISL,ioos:station:DISL:CATA:1,2011-11-05T15:00:00Z,30.3085,-88.1395,2.331,8.12,1111122 
DISL,ioos:station:DISL:CATA:1,2011-11-05T15:30:00Z,30.3085,-88.1395,2.326,8.15,1111122 
DISL,ioos:station:DISL:CATA:1,2011-11-05T16:00:00Z,30.3085,-88.1395,2.311,8.16,1111122 
DISL,ioos:station:DISL:CATA:1,2011-11-05T16:30:00Z,30.3085,-88.1395,2.304,8.16,1111122 
DISL,ioos:station:DISL:CATA:1,2011-11-05T17:00:00Z,30.3085,-88.1395,2.3,8.15,1111122 
DISL,ioos:station:DISL:CATA:1,2011-11-05T17:30:00Z,30.3085,-88.1395,2.305,8.15,1111122 
DISL,ioos:station:DISL:CATA:1,2011-11-05T18:00:00Z,30.3085,-88.1395,2.311,8.14,1111122 
DISL,ioos:station:DISL:CATA:1,2011-11-05T18:30:00Z,30.3085,-88.1395,2.31,8.14,1111122 
DISL,ioos:station:DISL:CATA:1,2011-11-05T19:00:00Z,30.3085,-88.1395,2.314,8.03,1111122 
DISL,ioos:station:DISL:CATA:1,2011-11-05T19:30:00Z,30.3085,-88.1395,2.32,7.98,1111122 
DISL,ioos:station:DISL:CATA:1,2011-11-05T20:00:00Z,30.3085,-88.1395,2.312,7.99,1111122 
DISL,ioos:station:DISL:CATA:1,2011-11-05T20:30:00Z,30.3085,-88.1395,2.313,8.01,1111122 
DISL,ioos:station:DISL:CATA:1,2011-11-05T21:00:00Z,30.3085,-88.1395,2.321,8.08,1111122 
DISL,ioos:station:DISL:CATA:1,2011-11-05T21:30:00Z,30.3085,-88.1395,2.341,8.08,1111122 
DISL,ioos:station:DISL:CATA:1,2011-11-05T22:00:00Z,30.3085,-88.1395,2.362,8.09,1111122 
DISL,ioos:station:DISL:CATA:1,2011-11-05T22:30:00Z,30.3085,-88.1395,2.38,8.01,1111122 
DISL,ioos:station:DISL:CATA:1,2011-11-05T23:00:00Z,30.3085,-88.1395,2.394,8.0,1111122 
DISL,ioos:station:DISL:CATA:1,2011-11-05T23:30:00Z,30.3085,-88.1395,2.406,8.09,1111122 
DISL,ioos:station:DISL:CATA:1,2011-11-06T00:00:00Z,30.3085,-88.1395,2.426,8.06,1111122 
DISL,ioos:station:DISL:CATA:1,2011-11-06T00:30:00Z,30.3085,-88.1395,2.428,8.14,1111122 
DISL,ioos:station:DISL:CATA:1,2011-11-06T01:00:00Z,30.3085,-88.1395,2.427,8.14,1111122 
DISL,ioos:station:DISL:CATA:1,2011-11-06T01:30:00Z,30.3085,-88.1395,2.445,8.1,1111122 
DISL,ioos:station:DISL:CATA:1,2011-11-06T02:00:00Z,30.3085,-88.1395,2.47,8.01,1111122 
DISL,ioos:station:DISL:CATA:1,2011-11-06T02:30:00Z,30.3085,-88.1395,2.467,7.87,1111122 
DISL,ioos:station:DISL:CATA:1,2011-11-06T03:00:00Z,30.3085,-88.1395,2.473,7.8,1111122 
DISL,ioos:station:DISL:CATA:1,2011-11-06T03:30:00Z,30.3085,-88.1395,2.476,7.71,1111122 
DISL,ioos:station:DISL:CATA:1,2011-11-06T04:00:00Z,30.3085,-88.1395,2.472,7.47,1111122 
DISL,ioos:station:DISL:CATA:1,2011-11-06T04:30:00Z,30.3085,-88.1395,2.451,7.86,1111122 
DISL,ioos:station:DISL:CATA:1,2011-11-06T05:00:00Z,30.3085,-88.1395,2.449,7.83,1111122 
DISL,ioos:station:DISL:CATA:1,2011-11-06T05:30:00Z,30.3085,-88.1395,2.416,8.01,1111122 
DISL,ioos:station:DISL:CATA:1,2011-11-06T06:00:00Z,30.3085,-88.1395,2.381,7.9,1111122 
DISL,ioos:station:DISL:CATA:1,2011-11-06T06:30:00Z,30.3085,-88.1395,2.343,8.04,1111122 
DISL,ioos:station:DISL:CATA:1,2011-11-06T07:00:00Z,30.3085,-88.1395,2.308,7.99,1111122 
DISL,ioos:station:DISL:CATA:1,2011-11-06T07:30:00Z,30.3085,-88.1395,2.311,7.96,1111122 
DISL,ioos:station:DISL:CATA:1,2011-11-06T08:00:00Z,30.3085,-88.1395,2.307,7.94,1111122 
DISL,ioos:station:DISL:CATA:1,2011-11-06T08:30:00Z,30.3085,-88.1395,2.305,7.92,1111122 
DISL,ioos:station:DISL:CATA:1,2011-11-06T09:00:00Z,30.3085,-88.1395,2.322,7.91,1111122 
DISL,ioos:station:DISL:CATA:1,2011-11-06T09:30:00Z,30.3085,-88.1395,2.321,7.93,1111122 
DISL,ioos:station:DISL:CATA:1,2011-11-06T10:00:00Z,30.3085,-88.1395,2.319,7.93,1111122 
DISL,ioos:station:DISL:CATA:1,2011-11-06T10:30:00Z,30.3085,-88.1395,2.322,7.93,1111122 
DISL,ioos:station:DISL:CATA:1,2011-11-06T11:00:00Z,30.3085,-88.1395,2.316,7.9,1111122 
DISL,ioos:station:DISL:CATA:1,2011-11-06T11:30:00Z,30.3085,-88.1395,2.33,7.91,1111122 
DISL,ioos:station:DISL:CATA:1,2011-11-06T12:00:00Z,30.3085,-88.1395,2.339,7.93,1111122 
DISL,ioos:station:DISL:CATA:1,2011-11-06T12:30:00Z,30.3085,-88.1395,2.34,7.93,1111122 
DISL,ioos:station:DISL:CATA:1,2011-11-06T13:00:00Z,30.3085,-88.1395,2.363,7.9,1111122 
DISL,ioos:station:DISL:CATA:1,2011-11-06T13:30:00Z,30.3085,-88.1395,2.351,7.88,1111122 
DISL,ioos:station:DISL:CATA:1,2011-11-06T14:00:00Z,30.3085,-88.1395,2.352,7.89,1111122 
DISL,ioos:station:DISL:CATA:1,2011-11-06T14:30:00Z,30.3085,-88.1395,2.352,7.9,1111122 
DISL,ioos:station:DISL:CATA:1,2011-11-06T15:00:00Z,30.3085,-88.1395,2.371,7.91,1111122 
DISL,ioos:station:DISL:CATA:1,2011-11-06T15:30:00Z,30.3085,-88.1395,2.366,7.93,1111122 